[Iaude] MPEC M80: 2015 VT152 [a=20.01,e=0.24,i=39.6,H=9.4]

mpec at marsden.cfa.harvard.edu mpec at marsden.cfa.harvard.edu
Mon Jun 22 23:57:26 EDT 2020


M.P.E.C. 2020-M80                                 Issued 2020 June 23, 03:55 UT

     The Minor Planet Electronic Circulars contain information on unusual
         minor planets and routine data on comets.  They are published
    on behalf of Division F of the International Astronomical Union by the
          Minor Planet Center, Smithsonian Astrophysical Observatory,
                          Cambridge, MA 02138, U.S.A.

             Prepared using the Tamkin Foundation Computer Network

                              MPC at CFA.HARVARD.EDU
            URL https://www.minorplanetcenter.net/    ISSN 1523-6714

                                   2015 VT152                                   


Additional Observations:
     K15VF2T &C2016 10 28.33298602 27 24.89 -26 51 47.1                VEM080W84
     K15VF2T &C2016 10 28.33435202 27 24.88 -26 51 46.9                VEM080W84
     K15VF2T &C2016 10 28.33574102 27 24.85 -26 51 47.2                VEM080W84
     K15VF2T &C2016 11 28.22098402 22 47.94 -26 56 56.8                VEM080W84
     K15VF2T &C2016 11 28.22235002 22 47.95 -26 56 57.0                VEM080W84
     K15VF2T &C2017 01 30.06614602 19 34.57 -25 40 18.7          22.6 iVEM080W84
     K15VF2T &C2017 01 30.06807902 19 34.58 -25 40 18.5          23.0 gVEM080W84
     K15VF2T &C2017 01 30.06946802 19 34.60 -25 40 18.2          22.6 rVEM080W84
     K15VF2T &C2017 11 18.28327502 38 43.05 -26 27 36.5                VEM080W84
     K15VF2T &C2017 11 18.28465302 38 43.02 -26 27 36.5                VEM080W84
     K15VF2T &C2017 11 18.28604202 38 43.02 -26 27 36.4                VEM080W84

Observer details:
W84 Cerro Tololo-DECam.  Observer .  Measurer S. Deen.  4.0-m reflector + CCD.

Orbital elements:
2015 VT152
Epoch 2020 May 31.0 TT = JDT 2459000.5                  Pike
M 267.54955              (2000.0)            P               Q
n   0.01101130     Peri.   21.82402     -0.87671293     -0.21097187
a  20.0098387      Node   137.34515     +0.28960488     -0.94905795
e   0.2358900      Incl.   39.64097     +0.38406178     +0.23405103
P  89.51           H    9.4           G   0.15           U   3
Residuals in seconds of arc
151106 W84  0.1+  0.2+    151130 W84  0.2+  0.2-    170130 W84  0.1-  0.0
151107 W84  0.1-  0.0     161028 W84  0.0   0.2-    170130 W84  0.1+  0.1+
151114 W84  0.1-  0.2+    161028 W84  0.1+  0.1+    171118 W84  0.1+  0.1-
151114 W84  0.1-  0.4+    161028 W84  0.1-  0.2-    171118 W84  0.1-  0.1-
151115 W84  0.2-  0.1-    161128 W84  0.0   0.3+    171118 W84  0.0   0.0
151121 W84  0.0   0.2-    161128 W84  0.2+  0.0
151130 W84  0.2+  0.3-    170130 W84  0.2-  0.0

Ephemeris:
2015 VT152               a,e,i = 20.01, 0.24, 40                 q = 15.2897
Date    TT    R. A. (2000) Decl.     Delta      r    Elong.  Phase     V
2020 05 24    03 19 13.8 -21 02 18  22.0022 21.2752    43.2     1.9    23.0
...
2020 06 08    03 22 25.6 -21 00 06  21.8941 21.2628    50.5     2.1    23.0
...
2020 06 16    03 24 02.3 -21 01 35  21.8208 21.2563    55.1     2.2    23.0
...
2020 06 22    03 25 11.2 -21 03 53  21.7593 21.2513    58.8     2.3    23.0
2020 06 23    03 25 22.4 -21 04 22  21.7486 21.2505    59.5     2.4    23.0
2020 06 24    03 25 33.4 -21 04 53  21.7377 21.2497    60.1     2.4    23.0
...
2020 06 30    03 26 37.3 -21 08 32  21.6698 21.2447    64.1     2.5    23.0
...
2020 07 08    03 27 55.8 -21 14 54  21.5731 21.2381    69.5     2.6    23.0
...
2020 07 23    03 29 58.8 -21 31 07  21.3773 21.2257    80.1     2.7    23.0

M. P. C. Staff               (C) Copyright 2020 MPC           M.P.E.C. 2020-M80




More information about the Iaude mailing list